星链-5824 (STARLINK-5824 )

导读 | 星芒AI

STARLINK-5824 是 SpaceX Starlink 项目中的一颗低轨通信卫星,属于该星座的多个批次之一。该卫星旨在为全球用户提供高速互联网服务,特别是网络基础设施薄弱的地区。它运行在约 550 公里的轨道高度,采用先进的相控阵天线和激光通信技术,以提高数据传输效率和系统稳定性。STARLINK-5824 的发射和运行有助于扩大 Starlink 网络的覆盖范围,提升服务质量,并推动全球宽带接入的普及。

基本信息
目录编号:
57067
目录名称:
STARLINK-5824
国际标识:
2023-088V
轨道中心:
EARTH
卫星名称:
星链-5824
卫星全名:
星链-5824 (STARLINK-5824 )
卫星状态:
在轨 (已飞行913 天)
发射日期:
2023-06-22 UTC
国别 :
美国 (US)
星等 :
--
轨道信息
数据来源 国际轨道数据 AOE轨道数据
星历时间 2025-12-20T05:12:14+0800
1天前
查看轨道信息
2025-12-20T13:00:00+0800
1天前
查看轨道信息
半长轴 6937.202km 6937.193km
偏心率 0.0001301 0.000202
轨道倾角 43.002° 42.995°
近地点辐角 267.447° 270.448°
升交点赤经 181.200° 179.435°
平近点角 92.623° 48.727°
近地点 558.162km 557.654km
远地点 559.968km 560.458km
周期 95.838分钟 95.837分钟
每日圈数 15.025409 15.025439
详细信息
固有亮度:
5
最大亮度:
2.4
卫星平台:
Starlink v1.5
覆盖范围:
全球
运营商:
太空探索技术公司
运营商所在国:
美国
制造商(研发单位):
太空探索技术公司
制造商所在国:
美国
使用方式:
暂无
卫星简介
星链(Starlink)计划是由太空探索技术公司(SpaceX)提出的一个巨型低轨卫星互联网星座项目,计划在2019年至2024年间在太空搭建由约1.2万颗卫星组成的“星链”网络,其中1584颗将部署在地球上空550千米处的近地轨道,并从2020年开始工作。该卫星仍在工作。
2D轨道图
3D轨道图
轨道高度分析图
轨道倾角分析图
轨道综合分析图
查看轨道综合分析图